Weather observations for the past three days for
Seldovia, Seldovia Airport
Imperial (Metric)
Date Time (akdt) Wind (mph) Vis. (mi.) Weather Sky Cond. Temperature (ºF) Relative Humidity Wind Chill (°F) Heat Index (°F) Pressure Precipitation (in)
Air Dwpt 6 hour altimeter (in) sea level (mb) 1 hr 3 hr 6 hr
Max. Min.
12 14:53 Calm 6.00 Light Rain FEW042 FEW055 OVC080 55.9 51.1 84% 29.82 1009.7 0.05
12 13:53 S 6 10.00 Light Rain FEW040 SCT065 OVC090 55.9 48.9 77% 29.83 1010.3 0.01
12 12:53 S 8 10.00 Overcast SCT038 BKN046 OVC100 57 48.9 74% 29.85 1010.9 0.01
12 11:53 Calm 10.00 Light Rain BKN042 OVC095 55.9 50 81% 29.87 1011.4
12 10:53 S 6 10.00 Light Rain SCT041 BKN060 OVC095 55 48.9 80% 29.88 1011.7 0.01
12 09:53 SW 5 10.00 Light Rain BKN040 BKN050 OVC085 55 48 55.9 53.1 77% 29.89 1012.1
12 08:53 S 8 10.00 Light Rain FEW038 SCT046 OVC090 55 48 77% 29.89 1012.2
12 07:53 Vrbl 5 10.00 Overcast OVC037 55 48 77% 29.89 1012.2
12 06:53 SE 5 10.00 Overcast BKN039 OVC046 55.9 48 75% 29.89 1012.2
12 05:53 Calm 10.00 Overcast OVC038 53.1 48 83% 29.9 1012.5
12 04:53 Calm 10.00 Overcast OVC042 53.1 48 83% 29.91 1012.9
12 03:53 Calm 10.00 Overcast OVC042 53.1 46.9 54 51.1 80% 29.92 1013.3
12 02:53 Calm 10.00 Overcast OVC043 52 46.9 83% 29.93 1013.4
12 00:53 Calm 10.00 Overcast OVC047 52 46 80% 29.95 1014.1
11 23:53 Calm 10.00 Overcast BKN047 OVC055 52 46 80% 29.95 1014.3
11 22:53 Calm 10.00 Mostly Cloudy BKN050 52 46.9 83% 29.96 1014.4
11 21:53 Calm 10.00 Overcast OVC047 54 46.9 62.1 54 77% 29.95 1014.2
11 20:53 N 3 10.00 Overcast OVC049 54 46.9 77% 29.95 1014.1
11 19:53 N 5 10.00 Overcast OVC050 55.9 46.9 72% 29.94 1014.0
11 18:53 Vrbl 6 10.00 Overcast FEW035 BKN050 OVC095 59 48 67% 29.94 1013.9
11 17:53 NE 5 10.00 Overcast SCT025 BKN029 OVC055 57.9 48 70% 29.94 1014.0
11 16:53 Calm 10.00 Overcast SCT032 BKN044 OVC060 57.9 48.9 72% 29.94 1013.9
11 15:53 NE 3 10.00 Overcast FEW034 SCT042 OVC050 57 48 59 54 72% 29.94 1014.0 0.01
11 14:53 Calm 10.00 Overcast BKN033 BKN041 OVC049 57 48.9 74% 29.93 1013.5 0.01
11 13:53 Calm 10.00 Light Rain BKN025 OVC033 57 50 78% 29.92 1013.3
11 12:53 Vrbl 3 10.00 Overcast BKN025 OVC047 57.9 50 75% 29.91 1012.8
11 11:53 Calm 10.00 Overcast BKN045 OVC055 57 48.9 74% 29.91 1012.8
11 10:53 Calm 10.00 Light Rain BKN047 OVC060 55.9 48.9 77% 29.91 1012.7
11 09:53 Calm 10.00 Overcast OVC055 54 48.9 54 51.1 83% 29.91 1012.7
11 08:53 Calm 10.00 Light Rain OVC047 54 48.9 83% 29.9 1012.5
11 07:53 Calm 10.00 Overcast FEW027 BKN043 OVC050 53.1 48 83% 29.89 1012.1
11 06:53 Calm 10.00 Overcast BKN050 OVC075 52 46.9 83% 29.87 1011.5
11 05:53 Calm 10.00 Overcast SCT047 OVC055 51.1 46.9 86% 29.86 1011.3
11 04:53 Calm 10.00 Overcast BKN043 OVC065 52 46.9 83% 29.85 1010.9
11 03:53 Calm 10.00 Overcast BKN044 OVC060 52 46.9 55.9 52 83% 29.85 1010.7 0.01
11 02:53 Calm 10.00 Overcast FEW026 BKN045 OVC060 52 46.9 83% 29.84 1010.5
11 01:53 Calm 10.00 Overcast SCT013 BKN018 OVC060 53.1 46.9 80% 29.84 1010.4
11 00:53 S 6 10.00 Overcast OVC043 53.1 46.9 80% 29.84 1010.3 0.01
10 23:53 S 9 10.00 Overcast FEW024 BKN034 OVC046 54 48 80% 29.82 1009.7 0.01
10 22:53 Vrbl 3 10.00 Overcast OVC043 55.9 48 75% 29.8 1009.1
10 21:53 S 6 10.00 Overcast BKN048 OVC060 55.9 48.9 60.1 55.9 77% 29.79 1008.7
10 20:53 S 6 10.00 Overcast BKN048 OVC055 57 48 72% 29.79 1008.6
10 19:53 S 6 10.00 Overcast FEW049 OVC055 57.9 48 70% 29.78 1008.3
10 18:53 Vrbl 6 10.00 Overcast SCT047 BKN055 OVC070 59 48 67% 29.77 1008.1
10 16:53 Vrbl 3 10.00 Light Rain BKN050 OVC060 60.1 48.9 67% 29.75 1007.5
10 15:53 S 8 10.00 Light Rain FEW032 BKN050 OVC065 59 48.9 61 55.9 69% 29.74 1007.2 0.01
10 14:53 Calm 10.00 Overcast BKN029 OVC035 61 48.9 65% 29.74 1007.1
10 13:53 NE 9 10.00 Overcast FEW030 BKN038 OVC048 59 48.9 69% 29.74 1007.0 0.01
10 12:53 N 3 10.00 Overcast BKN032 OVC041 57.9 46.9 67% 29.73 1006.8
10 11:53 N 5 10.00 Overcast FEW029 BKN046 OVC060 57.9 46.9 67% 29.73 1006.8
10 10:53 Calm 10.00 Overcast BKN034 OVC048 57 46.9 69% 29.73 1006.8
10 09:53 Calm 10.00 Overcast BKN047 OVC055 57 46.9 57 50 69% 29.73 1006.6
10 08:53 Calm 10.00 Overcast BKN046 OVC055 55 48 77% 29.72 1006.5
10 07:53 N 3 10.00 Overcast OVC047 53.1 46.9 80% 29.72 1006.3
10 06:53 Calm 10.00 Mostly Cloudy SCT050 BKN060 52 46 80% 29.71 1006.2
10 05:53 Calm 10.00 Overcast FEW043 BKN050 OVC060 52 46 80% 29.72 1006.2
10 03:53 Calm 10.00 Overcast FEW022 OVC046 50 45 55.9 48.9 83% 29.72 1006.3
10 02:53 Calm 10.00 Partly Cloudy SCT044 50 44.1 80% 29.72 1006.4
10 01:53 Calm 10.00 Partly Cloudy SCT043 51.1 45 80% 29.72 1006.5
10 00:53 N 5 10.00 Overcast OVC050 53.1 46 77% 29.72 1006.5
09 23:53 S 8 10.00 Mostly Cloudy BKN050 55 46.9 74% 29.72 1006.4
09 22:53 Calm 10.00 Partly Cloudy SCT050 55 46.9 74% 29.72 1006.3
09 21:53 Calm 10.00 Mostly Cloudy FEW019 FEW029 BKN060 54 46.9 62.1 54 77% 29.72 1006.3
09 20:53 N 3 10.00 Mostly Cloudy FEW032 SCT045 BKN055 55.9 48 75% 29.71 1006.0
09 19:53 NE 5 10.00 Overcast BKN030 OVC041 57 46.9 69% 29.71 1006.1
09 18:53 Vrbl 3 10.00 Mostly Cloudy FEW027 SCT041 BKN055 60.1 48 65% 29.71 1006.0
09 17:53 Calm 10.00 Overcast BKN034 OVC060 57.9 48.9 72% 29.72 1006.4
09 16:53 Calm 10.00 Overcast OVC035 57.9 50 75% 29.73 1006.8
09 15:53 Vrbl 3 10.00 Overcast OVC038 57 48.9 59 54 74% 29.74 1007.1
Date Time (akdt) Wind (mph) Vis. (mi.) Weather Sky Cond. Air Dwpt Max. Min. Relative Humidity Wind Chill (°F) Heat Index (°F) altimeter (in) sea level (mb) 1 hr 3 hr 6 hr
6 hour
Temperature (ºF) Pressure Precipitation (in)